Zanesville, OH

2:55 AM EDT on August 21, 2017 (GMT -0400)
Zanesville Municipal

Weather History for KZZV - July, 2013

Change the Weather History Date:

Friday, July 5, 2013

  Actual Average Record
Temperature  
Mean Temperature 75 °F 73 °F  
Max Temperature 80 °F 84 °F 99 °F (1899)
Min Temperature 69 °F 62 °F 45 °F (1979)
Degree Days  
Heating Degree Days 0 0  
Month to date heating degree days 0 0  
Since 1 June heating degree days 18 32  
Since 1 July heating degree days 0 0  
Cooling Degree Days 10 8  
Month to date cooling degree days 50 40  
Year to date cooling degree days 314 252  
Since 1 June cooling degree days 206 198  
Growing Degree Days 24 (Base 50)    
Moisture  
Dew Point 67 °F    
Average Humidity 80    
Maximum Humidity 90    
Minimum Humidity 69    
Precipitation  
Precipitation 0.33 in 0.14 in 2.38 in (1950)
Month to date precipitation 1.24 0.67  
Year to date precipitation 18.08 20.17  
Sea Level Pressure  
Sea Level Pressure 30.15 in    
Wind  
Wind Speed 4 mph (SSW)    
Max Wind Speed 13 mph    
Max Gust Speed 17 mph    
Visibility 8 miles    
Events Rain , Thunderstorm    
T = Trace of Precipitation, MM = Missing Value Source: NWS Daily Summary

Daily Weather History Graph

Daily Weather History Graph

Search for Another Location

Airport or City:

Trip Planner

Search our weather history database for the weather conditions in past years. The results will help you decide how hot, cold, wet, or windy it might be!

Date:

Astronomy

Jul. 05, 2013 Rise Set
Actual Time 6:04 AM EDT 8:59 PM EDT
Civil Twilight 5:32 AM EDT 9:31 PM EDT
Nautical Twilight 4:51 AM EDT 10:12 PM EDT
Astronomical Twilight 4:04 AM EDT 10:59 PM EDT
Moon 4:03 AM EDT (7/5) 6:53 PM EDT (7/5)
Length of Visible Light 15h 59m
Length of Day
14h 54m
Waning Crescent, 6% of the Moon is Illuminated
Jul 5
Waning Crescent
Jul 8
New
Jul 15
First Quarter
Jul 22
Full
Jul 29
Last Quarter

Hourly Weather History & Observations

Time (EDT) Temp. Heat Index Dew Point Humidity Pressure Visibility Wind Dir Wind Speed Gust Speed Precip Events Conditions
12:53 AM 70.0 °F - 68.0 °F 93% 30.12 in 10.0 mi SSE 3.5 mph - 0.00 in   Mostly Cloudy
1:31 AM 71.6 °F - 68.0 °F 88% 30.14 in 10.0 mi South 3.5 mph - 0.01 in   Overcast
1:53 AM 71.1 °F - 68.0 °F 90% 30.13 in 10.0 mi South 5.8 mph - 0.01 in   Scattered Clouds
2:11 AM 71.6 °F - 66.2 °F 83% 30.16 in 10.0 mi SW 6.9 mph - 0.00 in Rain Light Rain
2:30 AM 69.8 °F - 66.2 °F 88% 30.16 in 2.5 mi SW 3.5 mph - 0.08 in Rain Rain
2:49 AM 69.8 °F - 66.2 °F 88% 30.15 in 4.0 mi Calm Calm - 0.14 in Rain Light Rain
2:53 AM 70.0 °F - 66.9 °F 90% 30.13 in 5.0 mi Calm Calm - 0.14 in Rain Light Rain
3:53 AM 70.0 °F - 66.9 °F 90% 30.11 in 10.0 mi SE 5.8 mph - 0.00 in   Partly Cloudy
4:03 AM 69.8 °F - 66.2 °F 88% 30.12 in 10.0 mi SSE 5.8 mph - N/A   Partly Cloudy
4:53 AM 70.0 °F - 66.9 °F 90% 30.11 in 10.0 mi South 5.8 mph - N/A   Partly Cloudy
5:53 AM 70.0 °F - 66.9 °F 90% 30.13 in 10.0 mi SSW 6.9 mph - N/A   Mostly Cloudy
6:53 AM 70.0 °F - 66.0 °F 87% 30.14 in 10.0 mi SSW 4.6 mph - N/A   Overcast
7:53 AM 70.0 °F - 66.0 °F 87% 30.14 in 10.0 mi Calm Calm - 0.00 in Rain Light Rain
7:58 AM 69.8 °F - 66.2 °F 88% 30.17 in 1.5 mi Variable 3.5 mph - 0.04 in Rain Heavy Rain
8:05 AM 69.8 °F - 66.2 °F 88% 30.17 in 1.0 mi SW 5.8 mph - 0.05 in Rain Light Rain
8:08 AM 69.8 °F - 66.2 °F 88% 30.17 in 2.0 mi SSW 6.9 mph - 0.05 in Rain Light Rain
8:11 AM 69.8 °F - 66.2 °F 88% 30.17 in 7.0 mi SSW 5.8 mph - 0.05 in Rain Light Rain
8:26 AM 69.8 °F - 66.2 °F 88% 30.17 in 10.0 mi SSW 4.6 mph - 0.05 in   Overcast
8:53 AM 70.0 °F - 66.0 °F 87% 30.16 in 10.0 mi SW 4.6 mph - 0.05 in   Overcast
9:06 AM 69.8 °F - 66.2 °F 88% 30.17 in 10.0 mi Calm Calm - N/A   Overcast
9:14 AM 71.6 °F - 66.2 °F 83% 30.18 in 10.0 mi Calm Calm - N/A   Overcast
9:32 AM 71.6 °F - 64.4 °F 78% 30.18 in 10.0 mi Calm Calm - N/A   Overcast
9:43 AM 71.6 °F - 66.2 °F 83% 30.18 in 10.0 mi Calm Calm - N/A   Overcast
9:50 AM 71.6 °F - 64.4 °F 78% 30.18 in 10.0 mi Calm Calm - N/A   Overcast
9:53 AM 71.1 °F - 66.0 °F 84% 30.16 in 10.0 mi Calm Calm - N/A   Overcast
10:48 AM 71.6 °F - 66.2 °F 83% 30.19 in 10.0 mi Calm Calm - N/A   Overcast
10:53 AM 71.1 °F - 66.9 °F 87% 30.17 in 8.0 mi Calm Calm - N/A   Overcast
11:03 AM 71.6 °F - 66.2 °F 83% 30.19 in 5.0 mi Calm Calm - 0.00 in   Overcast
11:37 AM 71.6 °F - 66.2 °F 83% 30.19 in 10.0 mi Variable 3.5 mph - 0.00 in   Overcast
11:53 AM 73.0 °F - 68.0 °F 84% 30.17 in 10.0 mi Calm Calm - 0.00 in   Overcast
12:53 PM 75.9 °F - 69.1 °F 79% 30.16 in 10.0 mi South 8.1 mph - N/A   Overcast
1:04 PM 77.0 °F - 68.0 °F 74% 30.17 in 10.0 mi South 10.4 mph - N/A   Overcast
1:46 PM 75.2 °F - 69.8 °F 83% 30.16 in 10.0 mi SSW 5.8 mph - 0.02 in   Overcast
1:53 PM 77.0 °F - 71.1 °F 82% 30.14 in 10.0 mi SSW 6.9 mph - 0.02 in   Mostly Cloudy
2:35 PM 73.4 °F - 68.0 °F 83% 30.17 in 1.5 mi SW 10.4 mph 17.3 mph 0.06 in Rain Heavy Rain
2:42 PM 73.4 °F - 69.8 °F 88% 30.17 in 1.2 mi SW 6.9 mph - 0.08 in Rain Light Rain
2:46 PM 73.4 °F - 69.8 °F 88% 30.17 in 2.0 mi SW 11.5 mph 16.1 mph 0.10 in Rain Rain
2:53 PM 73.0 °F - 68.0 °F 84% 30.15 in 3.0 mi SW 6.9 mph 16.1 mph 0.10 in Rain Light Rain
3:53 PM 77.0 °F - 70.0 °F 79% 30.13 in 10.0 mi SSW 10.4 mph - 0.01 in   Mostly Cloudy
4:53 PM 80.1 °F 82.9 °F 69.1 °F 69% 30.10 in 10.0 mi South 11.5 mph - N/A   Clear
5:53 PM 79.0 °F - 68.0 °F 69% 30.11 in 10.0 mi SW 10.4 mph - N/A   Clear
6:53 PM 78.1 °F - 69.1 °F 74% 30.11 in 10.0 mi SSW 8.1 mph - N/A   Partly Cloudy
7:01 PM 78.8 °F - 69.8 °F 74% 30.13 in 10.0 mi SSW 5.8 mph - N/A Thunderstorm Scattered Clouds
7:17 PM 77.0 °F - 69.8 °F 78% 30.13 in 10.0 mi SW 4.6 mph - N/A   Mostly Cloudy
7:53 PM 75.0 °F - 69.1 °F 82% 30.12 in 10.0 mi West 3.5 mph - N/A   Mostly Cloudy
8:53 PM 73.9 °F - 70.0 °F 87% 30.13 in 10.0 mi Calm Calm - 0.00 in   Mostly Cloudy
9:53 PM 73.0 °F - 69.1 °F 87% 30.13 in 10.0 mi South 3.5 mph - N/A   Mostly Cloudy
10:53 PM 73.0 °F - 68.0 °F 84% 30.15 in 10.0 mi South 3.5 mph - N/A   Clear
11:53 PM 71.1 °F - 68.0 °F 90% 30.15 in 10.0 mi Calm Calm - N/A   Partly Cloudy